Regional Weather Roundup
Issued by NWS Northern Indiana

Home | Current Version | Previous Version | Text Only | Print | Product List | Glossary On
Versions: 1 2 3 4 5 6 7 8 9 10 11 12 13 14 15 16 17 18 19 20 21 22 23 24 25 26 27 28 29 30 31 32 33 34 35 36 37 38 39 40 41 42 43 44 45 46 47 48 49 50
000
ASUS43 KIWX 272210
RWRIWX

KIWX WEATHER ROUNDUP
NATIONAL WEATHER SERVICE NORTHERN INDIANA
500 PM EST TUE JAN 27 2015

NOTE: "FAIR" INDICATES FEW OR NO CLOUDS BELOW 12,000 FEET WITH NO
SIGNIFICANT WEATHER AND/OR OBSTRUCTIONS TO VISIBILITY.

* THESE STATIONS ARE NOT UNDER NWS QUALITY CONTROL. THEY ALSO MAY NOT
  REPORT WEATHER SUCH AS PRECIPITATION OR FOG.

INZ001>027-272300-
NORTHERN INDIANA

CITY           SKY/WX    TMP DP  RH WIND       PRES   REMARKS
GARY*          PTCLDY    30  14  51 N7        30.21R WCI  23
VALPARAISO     CLEAR     28  15  58 N8        30.19R WCI  20
MICHIGAN CITY* CLEAR     28  10  47 N9        30.21R WCI  20
LAPORTE*       CLEAR     29  16  57 N8        30.19S WCI  21
KNOX*          CLEAR     30  -4  22 NW10      30.18R WCI  21
SOUTH BEND     CLEAR     29  11  47 N7        30.19R WCI  22
ELKHART*       CLEAR     27   7  43 N6        30.19R WCI  20
GOSHEN         CLEAR     27  12  53 N7        30.17R WCI  19
MONTICELLO*    CLEAR     29  16  59 NW8       30.18R WCI  21
LOGANSPORT*    CLEAR     28  12  50 CALM      30.19R
ROCHESTER*     CLEAR     32  14  47 N5        30.17S WCI  27
WARSAW*          N/A    N/A N/A N/A MISG        N/A
ANGOLA*        CLEAR     25  10  54 N7        30.15R WCI  17
FORT WAYNE     PTCLDY    26  12  55 N8        30.17R WCI  18
HUNTINGTON*    CLEAR     25   8  48 N5        30.16S WCI  19
PERU/GRISSOM   CLEAR     25  15  65 W7        30.16R WCI  17
MARION*        CLEAR     26  12  55 N5        30.17R WCI  20

$$
INZ028>050-272300-
CENTRAL INDIANA

CITY           SKY/WX    TMP DP  RH WIND       PRES   REMARKS
LAFAYETTE      CLEAR     28  11  48 N7        30.20R WCI  21
KOKOMO*        CLEAR     27  12  54 NW7       30.17R WCI  19
MUNCIE*        CLEAR     24  13  62 NE8       30.16R WCI  15
INDIANAPOLIS   PTCLDY    29  10  45 NW9       30.16R WCI  20

$$
MIZ043>046-050>051-056>058-064>065-071>073-077>080-272300-
SOUTHWEST LOWER MICHIGAN

CITY           SKY/WX    TMP DP  RH WIND       PRES   REMARKS
BATTLE CREEK   CLEAR     27  10  49 N9        30.17R WCI  18
BENTON HARBOR  CLEAR     25  13  60 NW6       30.20R WCI  18
COLDWATER*     CLEAR     25  11  55 N7        30.15R WCI  18
HILLSDALE*     CLEAR     25  11  55 N6        30.13R WCI  18
HOLLAND        CLEAR     29  10  45 NE5       30.21R WCI  24
GRAND RAPIDS   CLEAR     28  10  46 N6        30.19R WCI  22
KALAMAZOO      CLEAR     26  12  55 NW10      30.18R WCI  16
STURGIS*       CLEAR     25  12  58 N7        30.16R WCI  17
THREE RIVERS*  FAIR      27  10  49 N3        30.17S

$$
OHZ001>008-015>018-024>025-272300-
NORTHWEST OHIO

CITY           SKY/WX    TMP DP  RH WIND       PRES   REMARKS
WAUSEON*       FAIR      27  10  50 N10       30.15R WCI  17
DEFIANCE       CLEAR     27  10  49 NW5       30.16R WCI  22
FINDLAY        CLEAR     23  10  57 NW8       30.14R WCI  14
TOLEDO EXPRESS CLEAR     26  11  52 NW9       30.15R WCI  17
TOLEDO METCALF MOCLDY    27  12  53 N6        30.16R WCI  20
LIMA           CLEAR     22  11  62 NW8       30.14R WCI  12

$$
AND FOR LAKE MICHIGAN COASTAL AND OPEN LAKE BUOY OBSERVATIONS

STATION/POSITION TEMP    WIND        PRES    VSBY  WAVE
                 AIR SEA DIR/SP/G                  HT/PER
                 (F)     (DEG/KT/KT) (MB)    (MI)  (FT/S)
CALUMET HARBOR    28     340/  8/ 12   N/A
MICHIGAN CITY     27     350/ 11/ 13   N/A
SAINT JOSEPH      26     350/  7/ 10 1023.4R

$$
&&


USA.gov is the U.S. government's official web portal to all federal, state and local government web resources and services.